Find OneWeb SL0050

NORAD ID: 45453 Int'l Des: 2020-020 Owner: ONEWEB Country: UK Constellation: oneweb operational
LEOCIRCULARPOLAR

Live Position

Loading 3D Globe...

About OneWeb SL0050

Description loading...

Upcoming Passes

Passes for default location (London). Set your location on the main map for personalized predictions.

Altitude History

Loading altitude history...

Two-Line Element Set

1 45453U 20020AF 26112.27519876 .00001887 00000-0 19293-3 0 9993
2 45453 88.9270 240.8026 0004700 142.6011 217.5546 14.90133570332051
Epoch: Apr 22, 2026 • Age: 12 hours

Current Status

Altitude 609.4 km
Velocity 7.56 km/s
Sub-Earth Point 87.10°N, 137.33°E
Launch Date Mar 21, 2020
Age 6 years
Type internet

Technical Details

Classification Payload
Mass 148.00 kg
Dry Mass 140.00 kg
Total Mass 148.00 kg
Length 1.30 m
Diameter 1.00 m
Span 5.00 m
Shape Trapezoid+2 pan
Manufacturer ONEWUS
Bus Type ARROW
Phase Status In Orbit
Owner/State ONEWEB/UK

Most Searched